Torna al catalogo

FENGYUN 1C DEB

AttivoSSO
NORAD 30940·DEBRIS·🇨🇳 China

Lanciato May 10, 1999 da Taiyuan Satellite Launch Center

Loading…

Prossimi Passaggi (prossime 24 ore)

TLE

AggiornatoSource: Space-Track

Epoca: Sep 13, 2026, 05:01 UTC

1 30940U 99025BAE 26256.20905271  .00000504  00000-0  31478-3 0  9993
2 30940  98.6357 249.7254 0039859 306.0320 112.4242 14.08664009999963

Traccia FENGYUN 1C DEB in tempo reale con AllMySat

Download on the App Store